Regional Weather Roundup
Issued by NWS Sioux Falls, SD

Home | Current Version | Previous Version | Text Only | Print | Product List | Glossary On
Versions: 1 2 3 4 5 6 7 8 9 10 11 12 13 14 15 16 17 18 19 20 21 22 23 24 25 26 27 28 29 30 31 32 33 34 35 36 37 38 39 40 41 42 43 44 45 46 47 48 49 50
000
ASUS43 KFSD 251210
RWRFSD

WEATHER ROUNDUP FOR SE SOUTH DAKOTA/SW MINNESOTA/NW IOWA
NATIONAL WEATHER SERVICE SIOUX FALLS SD
700 AM CDT SUN SEP 25 2016

NOTE: "FAIR" INDICATES FEW OR NO CLOUDS BELOW 12,000 FEET WITH NO
SIGNIFICANT WEATHER AND OR OBSTRUCTIONS TO VISIBILITY.


SDZ038>040-050-052>070-251300-
SOUTHEAST SOUTH DAKOTA

CITY           SKY/WX    TMP DP  RH WIND       PRES   REMARKS
BROOKINGS      CLEAR     51  46  83 SW15      29.93S
CHAMBERLAIN    CLOUDY    59  47  63 NW26G33   30.04S
6HR MIN TEMP:  55; 6HR MAX TEMP:  60;

HURON          CLOUDY    57  47  69 W22G31    29.93S
6HR MIN TEMP:  53; 6HR MAX TEMP:  58;

MADISON        FAIR      50  50 100 W16       29.96R
MITCHELL       CLOUDY    59  47  64 W13       29.99R
6HR MIN TEMP:  54; 6HR MAX TEMP:  60;

SIOUX FALLS    PTCLDY    53  46  77 SW6       29.98S
6HR MIN TEMP:  53; 6HR MAX TEMP:  69;

WINNER         CLOUDY    59  45  59 NW23G35   30.08S
YANKTON        CLEAR     55  45  67 W15       30.03R
$$

MNZ071-072-080-081-089-090-097-098-251300-
SOUTHWEST MINNESOTA

CITY           SKY/WX    TMP DP  RH WIND       PRES   REMARKS
FAIRMONT       CLOUDY    61  55  82 NW13      29.95R
JACKSON        CLOUDY    55  48  76 W10       29.98R
LUVERNE        CLEAR     50  45  81 SW5       29.99S
MARSHALL       PTCLDY    55  48  77 W15       29.92R
6HR MIN TEMP:  55; 6HR MAX TEMP:  69; 6HR PCP:  0.02;

MONTEVIDEO     CLOUDY    54  52  94 W8        29.91S
PIPESTONE      CLEAR     52  46  82 W10       29.96S
REDWOOD FALLS  MOCLDY    58  49  72 W8        29.92R
TRACY          MOCLDY    56  50  81 W10G16    29.94R
WINDOM         PTCLDY    55  48  76 SW8       29.96R
WORTHINGTON    CLOUDY    54  48  80 W13G18    29.98R
$$

IAZ001>003-012>014-020>022-031-032-NEZ013-014-SDZ071-251300-
NORTHWEST IOWA

CITY           SKY/WX    TMP DP  RH WIND       PRES   REMARKS
CHEROKEE       PTCLDY    55  51  84 SW3       30.03R
DENISON        CLOUDY    59  54  82 NW6       30.04R
ESTHERVILLE    CLOUDY    57  55  93 W8        29.97R
LE MARS        PTCLDY    54  48  82 SW5       30.04S
ORANGE CITY    PTCLDY    52  46  82 W7        30.02S
SHELDON        MOCLDY    52  50  93 W7        30.00R
SIOUX CITY     MOCLDY    55  48  77 W8        30.05R
6HR MIN TEMP:  55; 6HR MAX TEMP:  71; 6HR PCP: TRACE;

SPENCER        PTCLDY    57  51  80 W10       30.00R
6HR MIN TEMP:  57; 6HR MAX TEMP:  68; 6HR PCP:  0.19;

STORM LAKE     CLOUDY    55  52  88 W9        30.03R
$$

ABBREVIATIONS USED IN REMARKS
   TC - TEMPERATURE IN CELSIUS
  WCI - WIND CHILL INDEX
   HX - HEAT INDEX
  VSB - VISIBILITY





USA.gov is the U.S. government's official web portal to all federal, state and local government web resources and services.